Retour au catalogue

STARLINK-31068

ActifCommunicationsVLEO
NORAD 58623·PAYLOAD·🇺🇸 United States

Lancé Dec 23, 2023 depuis Cape Canaveral Space Force Station

Loading…

Prochains Passages (prochaines 24 heures)

TLE

FraisSource: CelesTrak SupGP

Époque: Sep 15, 2026, 02:12 UTC

1 58623C 23203F   26258.09215278  .00003546  00000+0  12841-3 0  2585
2 58623  43.0004  77.4929 0001287 269.3666 230.3439 15.27580683    11

Suivez STARLINK-31068 en temps réel avec AllMySat

Download on the App Store